Regional Weather Roundup
Issued by NWS

Home | Current Version | Previous Version | Graphics & Text | Print | Product List | Glossary On
Versions: 1 2 3 4 5 6 7 8 9 10 11 12 13 14 15 16 17 18 19 20 21 22 23 24 25 26 27 28 29 30 31 32 33 34 35 36 37 38 39 40 41 42 43 44 45 46 47 48 49 50
000
ASUS45 KABQ 191510
RWRNM
NEW MEXICO REGIONAL WEATHER ROUNDUP
NATIONAL WEATHER SERVICE ALBUQUERQUE NM
900 AM MDT THU OCT 19 2017

NOTE: "FAIR" MEANS FEW OR NO CLOUDS BELOW 12,000 FEET AGL WITH NO
       SIGNIFICANT WEATHER OR OBSTRUCTIONS TO VISION.

      THIS PRODUCT IS RELEASED AS TWO VERSIONS.  ONE VERSION NEAR
      THE TOP OF THE HOUR CONTAINING PRELIMINARY DATA FROM ALBUQUERQUE
      AND OTHER STATIONS.  A FINAL VERSION WITH ADDITIONAL DATA IS
      ISSUED ABOUT 10 MINUTES AFTER THE HOUR.

NMZ501-503-504-510>518-191600-
NORTHWEST PLATEAU/NORTHCENTRAL MOUNTAINS

CITY           SKY/WX    TMP DP  RH WIND       PRES   REMARKS
FARMINGTON     FAIR      47  26  44 E6        30.14R
LOS ALAMOS     FAIR      50  19  28 N5        30.25S
SANTA FE       FAIR      48  24  39 N14       30.21R
TAOS           FAIR      41  19  41 N7        30.29R
ANGEL FIRE     FAIR      30  24  77 CALM      30.35R

$$
NMZ402-403-502-505>509-191600-
WESTCENTRAL MOUNTAINS/SOUTHWEST MOUNTAINS

CITY           SKY/WX    TMP DP  RH WIND       PRES   REMARKS
GALLUP         CLOUDY    49  26  41 NE6       30.20S
GRANTS         PTSUNNY   44  28  53 CALM      30.24R
SILVER CITY    FAIR      65  46  50 CALM      30.15R

$$
NMZ407-409-411-412-191600-
SOUTHERN DESERTS

CITY           SKY/WX    TMP DP  RH WIND       PRES   REMARKS
DEMING         FAIR      60  50  69 CALM      30.11R
HOLLOMAN AFB   PTSUNNY   61  50  67 NE5       30.12R
ALAMOGORDO     FAIR      63  48  59 N3        30.12R
T OR C         FAIR      61  45  55 CALM      30.13R

$$
NMZ519>523-191600-
CENTRAL VALLEYS/CENTRAL HIGHLANDS

CITY           SKY/WX    TMP DP  RH WIND       PRES   REMARKS
ALBUQUERQUE    PTSUNNY   56  29  35 NE3       30.17R
DOUBLE EAGLE   PTSUNNY   55  25  30 NE6       30.19R
MORIARTY ARPT  FAIR      49  31  48 CALM      30.23R
CLINES CORNERS NOT AVBL
BELEN          FAIR      54  30  39 NE5       30.17R
SOCORRO        NOT AVBL

$$
NMZ524>526-539-540-191600-
SOUTHCENTRAL MOUNTAINS

CITY           SKY/WX    TMP DP  RH WIND       PRES   REMARKS
RUIDOSO        FAIR      57  41  54 W5        30.25R

$$
NMZ527>531-191600-
NORTHEAST HIGHLANDS/NORTHEAST PLAINS

CITY           SKY/WX    TMP DP  RH WIND       PRES   REMARKS
LAS VEGAS      FAIR      50  28  42 NE3       30.23R
RATON          FAIR      47  32  56 NE8       30.19R
CLAYTON        FAIR      65  41  41 CALM      30.12

$$
NMZ532>537-191600-
EASTCENTRAL PLAINS

CITY           SKY/WX    TMP DP  RH WIND       PRES   REMARKS
SANTA ROSA     FAIR      51  37  58 CALM      30.14R
CANNON AFB     MOSUNNY   55  55 100 SE7       30.13R
CLOVIS AIRPORT   N/A     56  49  77 S8        30.13R

$$
NMZ028-029-538-191600-
SOUTHEAST PLAINS

CITY           SKY/WX    TMP DP  RH WIND       PRES   REMARKS
ROSWELL        PTSUNNY   56  48  74 W7        30.12R
ARTESIA        FAIR      59  48  67 NE5       30.09S
CARLSBAD       CLOUDY    59  56  89 SW13      30.08R
HOBBS          MOSUNNY   57  46  67 S5        30.12R


$$




USA.gov is the U.S. government's official web portal to all federal, state and local government web resources and services.